Temp
28 28 28 29 30 31 31 32 32 34 36 33 33 33 34 34 34 34 34 33 33 31 30 27 26 25 23 23 22 21 21 21 20 20 21 20 19 18 17 16 15 15 15 15
28 27 29 31 31 31 31 31 32 34 35 34 34 33 34 34 34 33 33 33 33 31 29 27 25 24 23 22 22 22 21 21 20 21 21 19 19 18 18 16 16 16 16 15
28 29 30 31 31 31 31 31 32 32 34 34 33 32 33 34 35 35 35 34 33 30 28 26 25 24 23 23 22 22 22 21 20 20 21 20 19 18 18 17 16 16 16 16
29 31 31 31 31 32 31 33 33 33 32 30 33 30 32 33 34 34 34 33 32 30 29 27 25 24 23 23 23 22 22 21 21 20 21 20 18 18 17 17 16 16 16 16
29 31 31 32 32 33 32 34 34 33 32 31 31 30 31 33 33 34 34 34 32 30 29 27 26 24 24 24 23 22 22 21 21 20 20 20 19 18 17 17 17 16 16 16
30 33 33 33 34 34 34 34 33 32 32 29 30 30 30 32 33 33 34 34 32 31 29 27 26 25 24 24 23 22 22 22 21 21 21 20 19 18 17 17 17 16 15 16
31 31 33 34 33 34 34 32 29 28 28 28 31 30 31 34 34 34 34 33 32 31 29 27 26 25 24 24 23 22 22 22 21 22 21 20 19 17 17 17 17 16 16 15
29 29 32 34 34 33 33 31 30 27 27 29 32 31 32 34 34 34 34 33 31 30 28 27 26 25 25 24 23 23 22 22 22 22 21 21 19 18 17 17 16 16 16 15
30 30 34 34 35 34 32 31 32 30 31 31 32 32 33 34 33 33 33 32 30 29 27 27 26 25 25 24 23 23 23 22 22 21 21 21 20 19 18 17 17 16 16 15
31 30 34 34 35 34 33 34 30 30 27 27 30 31 32 32 33 33 32 31 29 28 28 27 26 25 25 24 23 23 23 23 22 22 21 21 20 19 19 18 17 17 16 16
32 31 33 34 33 32 32 32 32 31 31 28 28 30 34 33 33 31 32 31 29 28 28 27 27 26 25 24 23 23 23 23 22 22 22 22 21 21 20 19 18 17 17 17
32 31 31 33 35 34 33 32 32 30 29 31 31 31 34 33 33 33 31 31 29 29 28 28 27 26 25 24 24 23 23 23 23 22 22 21 21 21 19 19 18 18 17 17
31 30 30 31 33 33 32 33 33 32 31 30 29 31 33 33 33 33 31 31 29 29 29 28 28 26 26 25 25 24 23 23 23 23 22 21 21 20 20 19 19 19 18 17
30 30 29 30 32 32 31 32 33 31 30 30 31 32 33 32 33 33 32 31 30 29 29 29 28 27 26 25 25 24 24 24 24 23 22 21 21 20 21 21 20 19 19 18
30 28 31 32 33 33 32 32 32 32 31 30 31 32 33 33 33 33 32 31 31 30 30 29 28 27 27 26 26 25 24 24 24 24 22 21 21 21 21 22 22 20 20 20
30 28 30 31 32 33 32 32 32 33 32 31 32 32 34 34 34 34 32 32 31 31 30 30 29 28 27 26 26 26 25 24 24 24 22 21 21 22 21 21 22 22 21 21
29 29 29 29 31 32 31 33 32 32 33 33 31 32 34 34 34 34 32 32 32 31 31 30 29 28 27 26 26 26 25 24 24 24 23 22 22 22 21 21 21 22 22 22
25 28 29 29 30 27 32 34 34 33 33 34 34 34 34 34 34 35 35 33 32 32 32 30 29 28 27 27 26 26 25 25 24 24 23 23 22 22 21 21 21 21 21 21
27 29 28 27 27 30 32 33 33 32 32 34 33 34 34 34 34 34 35 35 33 32 32 31 30 29 28 27 26 26 26 25 25 24 24 23 23 22 22 22 20 20 20 20
28 29 28 28 26 27 31 34 35 34 31 34 34 33 33 34 32 33 34 35 33 33 32 31 30 29 27 27 26 26 26 25 25 25 25 24 24 23 22 22 20 20 20 20
26 27 26 26 27 29 33 34 34 29 30 33 33 33 33 32 33 33 33 34 33 33 32 32 30 29 27 27 26 26 26 26 26 26 26 25 24 23 23 22 20 20 20 20
25 25 26 27 26 27 33 33 32 31 32 33 33 33 32 33 33 33 34 34 34 33 33 32 30 29 27 27 26 26 26 26 26 27 26 25 24 24 23 21 20 20 20 20
18 23 24 27 28 31 31 32 31 32 32 33 33 33 33 33 33 34 34 33 34 33 33 33 32 29 27 27 27 26 26 26 27 27 27 25 24 24 23 21 20 20 20 20
19 19 20 22 26 30 31 32 32 32 32 33 34 33 33 33 33 33 33 33 33 33 33 33 32 30 28 27 27 26 26 27 27 27 26 25 23 23 22 21 20 20 20 20
17 16 18 19 24 28 29 30 32 32 32 33 33 33 33 33 34 34 34 33 33 33 33 32 32 31 28 27 27 26 26 27 27 27 26 24 23 23 21 21 21 21 21 20
17 16 15 19 17 18 27 23 25 31 29 31 32 33 33 33 33 34 33 33 33 33 33 32 31 31 30 28 28 27 27 27 27 26 26 25 24 23 23 22 22 22 22 21
Height
724 735 732 724 720 721 719 717 715 698 682 704 707 704 697 691 693 694 691 689 692 697 703 716 727 735 740 744 745 746 746 747 747 744 743 742 740 739 739 739 738 737 736 736
726 725 714 709 711 716 717 718 713 696 684 691 696 699 692 690 690 687 686 686 687 693 703 714 725 733 738 742 743 744 745 745 745 743 742 741 739 738 738 738 737 736 734 735
714 704 704 703 706 712 711 714 712 708 693 688 695 705 699 685 677 674 674 676 681 693 704 712 722 731 737 739 741 742 743 744 744 743 741 740 739 737 737 737 736 734 734 735
698 692 693 698 698 698 713 692 694 700 710 727 694 728 700 688 682 672 673 675 680 688 698 708 719 728 734 737 739 740 742 743 743 743 741 740 740 738 737 736 736 734 735 735
683 686 689 686 687 682 693 678 685 693 707 712 715 724 704 683 685 673 673 671 675 683 693 704 715 724 731 735 737 740 741 743 743 743 743 741 741 739 737 736 736 735 734 735
676 662 666 669 662 667 669 680 686 693 703 728 713 718 711 692 679 675 670 667 673 682 692 703 714 722 729 733 736 739 741 742 743 743 743 742 741 739 737 736 737 737 736 736
672 668 654 652 668 659 671 690 723 739 736 734 700 709 694 671 667 668 671 669 674 681 692 703 712 720 727 731 734 738 740 742 743 742 743 743 743 740 739 739 739 739 738 737
679 685 654 642 652 666 671 688 713 744 738 720 680 703 687 662 659 662 665 669 676 684 693 703 711 718 725 730 733 736 738 741 742 742 744 744 744 743 742 741 741 740 740 740
663 661 637 637 638 646 669 688 676 701 690 702 690 679 664 656 663 664 667 672 681 688 695 703 710 717 722 728 733 735 737 739 741 743 744 744 745 744 744 743 742 742 741 742
639 660 630 632 631 638 653 658 699 696 729 734 704 691 685 674 669 665 670 676 683 689 697 703 710 716 721 727 732 735 736 739 741 743 744 744 745 746 745 744 743 743 743 744
628 636 637 624 635 651 660 664 671 682 690 715 722 697 650 660 661 670 669 673 682 689 696 702 708 715 720 726 730 734 736 738 740 742 744 745 745 746 747 747 746 745 745 747
614 628 646 629 615 623 641 656 662 690 701 686 687 689 647 652 656 659 667 672 681 686 693 699 705 713 719 724 728 733 735 737 739 742 744 745 746 748 749 749 748 747 748 749
610 634 647 637 625 624 647 646 648 659 670 688 699 688 647 649 654 657 666 672 682 684 691 696 703 710 716 722 726 730 733 735 738 741 744 746 747 749 750 751 752 751 751 752
600 618 633 639 627 627 648 644 642 656 679 683 677 668 655 658 660 658 660 666 675 680 687 693 700 707 713 718 722 727 731 734 737 740 744 747 748 750 751 752 754 755 756 756
597 626 616 615 611 614 628 640 642 649 655 673 669 665 652 650 654 651 653 663 670 678 682 689 696 702 709 715 719 723 728 731 735 739 743 748 749 750 751 753 755 756 759 760
588 620 616 622 610 605 623 626 634 636 641 653 655 658 637 634 637 643 650 658 667 673 677 683 691 698 705 711 716 720 725 729 734 737 742 748 750 751 752 754 757 759 760 762
590 601 621 630 613 611 626 616 623 628 627 636 655 646 634 636 636 639 648 654 660 664 669 677 685 692 700 706 713 717 722 727 733 736 740 746 749 751 754 756 759 760 762 764
609 599 608 628 621 646 607 592 604 618 620 620 625 627 630 631 629 632 633 642 649 655 661 669 678 687 696 704 710 715 720 725 731 734 738 743 747 750 753 756 759 762 764 766
588 591 612 630 631 617 606 596 605 616 623 612 620 620 623 624 626 632 627 632 639 646 653 662 672 683 692 700 707 712 717 722 728 732 735 740 744 748 752 755 758 762 765 768
586 586 609 619 638 639 602 588 583 593 631 602 608 616 623 623 645 636 625 627 635 641 649 656 667 678 687 696 703 709 714 718 723 727 731 736 741 745 750 754 757 761 765 768
605 601 614 620 622 608 585 576 580 631 629 599 600 608 616 627 625 621 617 624 630 636 645 652 662 671 681 690 699 705 710 714 719 724 728 732 738 743 748 752 757 761 765 767
608 613 612 614 625 631 575 581 601 597 593 594 596 601 611 614 615 617 618 625 627 634 640 647 657 667 676 686 695 702 707 711 717 720 724 729 735 741 746 750 755 760 763 765
650 616 618 606 607 584 578 582 578 584 593 591 592 596 602 610 614 614 619 623 626 631 637 644 652 664 674 680 688 696 703 709 714 717 720 726 732 739 742 748 753 758 762 763
635 637 639 626 607 589 584 580 581 586 590 587 588 592 597 606 608 613 617 621 626 631 635 641 648 658 669 676 682 691 699 704 710 713 717 723 729 736 741 746 751 755 758 761
663 665 646 629 610 594 589 590 585 586 588 588 590 592 595 599 603 607 612 618 624 629 633 639 646 652 663 673 679 686 693 699 704 709 714 720 726 732 738 742 746 750 753 756
664 659 663 641 648 649 608 611 606 592 597 591 591 594 594 597 601 604 610 617 624 627 631 638 644 649 657 666 674 680 687 693 699 704 709 715 722 728 734 738 742 746 748 752
Wind_Speed
19 15 22 25 26 26 24 23 23 22 16 9 15 21 18 13 14 19 16 9 7 10 12 19 17 15 12 10 8 8 5 4 5 10 8 7 6 6 3 4 8 9 11 9
21 24 26 26 23 27 27 25 23 20 18 14 14 15 13 15 17 19 17 13 8 12 14 15 18 15 14 11 10 8 6 4 4 8 6 3 4 4 2 3 3 5 3 8
26 25 26 27 24 26 25 24 20 22 17 16 15 14 14 21 18 13 12 5 3 14 13 15 14 16 14 13 10 9 5 3 3 6 9 7 9 7 4 4 4 3 3 6
30 26 28 28 26 25 24 25 24 17 14 12 14 13 13 15 16 11 5 8 10 15 14 15 14 16 15 14 12 9 6 4 4 5 9 9 9 10 4 3 7 3 3 5
32 28 30 27 28 27 23 23 18 13 15 14 15 12 14 14 17 7 1 6 13 15 15 16 15 18 16 14 13 9 7 4 1 1 6 9 9 10 8 3 6 7 5 4
29 24 29 30 25 25 24 20 11 12 12 12 15 15 14 15 4 4 1 5 13 14 15 15 17 19 16 13 14 10 7 4 3 0 4 6 8 11 8 4 7 10 6 5
26 33 30 29 29 22 23 12 11 10 11 11 17 15 15 9 10 1 2 4 12 13 14 14 14 14 15 14 14 10 8 7 4 1 3 6 10 11 11 10 10 9 11 10
23 22 33 27 29 24 21 17 11 11 11 16 20 16 3 5 6 2 1 4 12 12 13 14 14 14 16 14 14 12 9 8 6 3 2 4 7 9 9 9 10 9 9 11
22 29 23 32 23 22 19 21 17 17 15 12 8 10 13 12 7 9 10 9 12 11 13 14 14 15 16 15 14 10 9 9 5 3 2 2 6 8 8 10 12 12 11 13
25 17 28 30 25 22 22 19 16 12 15 13 11 14 4 11 6 10 8 7 12 11 13 13 13 14 14 16 14 10 8 7 5 4 4 4 8 8 8 6 7 9 12 13
26 17 21 24 26 22 19 18 16 14 14 11 9 9 3 11 9 9 8 11 12 13 14 13 13 15 14 16 16 12 10 10 7 5 4 3 8 6 9 8 11 9 13 12
32 11 16 27 27 26 23 23 17 10 15 10 10 3 11 8 8 7 11 12 14 15 14 14 13 16 15 15 16 14 12 11 9 8 8 4 8 8 10 11 13 10 12 14
27 21 13 19 22 23 23 24 19 13 9 14 11 10 10 11 9 6 13 15 14 14 14 13 13 12 14 16 16 16 13 12 11 10 10 5 9 10 11 11 13 14 14 17
22 19 22 16 20 22 26 24 23 19 13 14 14 14 13 12 9 10 14 18 16 15 14 14 13 13 16 18 17 17 15 14 12 12 13 8 9 12 10 10 11 15 15 17
21 26 21 23 23 27 25 25 26 24 19 18 16 16 11 14 12 11 13 16 17 16 17 14 13 12 15 18 17 17 16 16 14 14 16 11 9 10 11 11 12 18 18 18
20 20 21 24 27 26 28 27 26 25 23 22 20 17 13 9 18 13 16 15 15 16 17 15 14 14 14 19 18 18 17 18 16 14 17 15 12 10 11 13 12 14 14 17
17 17 22 19 23 23 24 26 26 21 21 22 20 15 13 11 11 8 16 14 13 16 17 17 16 14 17 21 20 19 18 20 18 15 18 17 15 13 12 13 11 9 12 14
13 22 17 15 17 26 13 21 22 21 18 19 17 16 16 13 8 11 13 17 15 15 16 17 15 15 22 23 22 21 19 20 19 16 19 19 18 16 14 16 14 12 9 11
18 16 11 15 15 13 23 20 22 21 18 18 18 15 14 16 13 9 9 9 14 12 13 15 23 22 24 23 25 22 21 22 20 19 19 20 20 21 18 16 19 15 11 11
15 15 12 13 16 21 15 22 15 14 15 15 16 13 14 14 11 9 12 11 15 14 12 15 26 26 26 25 27 24 21 23 21 21 20 21 20 21 21 18 20 18 15 13
14 15 17 13 8 13 20 14 18 17 8 13 14 15 13 12 8 8 10 10 14 15 13 22 29 27 29 28 28 24 23 23 23 21 21 21 22 22 21 20 20 17 16 15
14 15 12 15 13 11 13 17 20 6 6 6 14 14 12 9 8 8 7 2 12 15 14 21 23 25 31 30 28 24 23 23 23 22 22 23 22 21 21 22 21 19 17 14
6 3 9 8 11 3 6 8 7 8 7 7 14 12 12 12 12 11 8 9 8 11 11 19 20 24 28 32 31 26 24 24 24 22 23 24 26 21 23 23 21 19 18 13
6 13 6 8 17 14 11 8 7 10 8 7 9 9 12 13 13 12 11 11 8 7 10 18 20 22 24 31 31 29 26 26 24 22 24 27 27 21 24 22 20 19 20 18
10 10 13 12 10 10 2 9 7 10 8 10 8 7 8 10 12 11 9 10 8 9 12 17 15 19 25 28 28 30 28 29 26 24 25 26 25 25 24 23 22 22 22 24
8 4 4 4 18 12 12 16 28 13 3 3 9 8 12 8 10 13 11 10 10 9 13 13 12 13 24 28 27 29 32 31 26 24 25 26 24 26 21 22 20 23 19 24
Wind_Direction
225 221 225 224 223 237 244 251 246 253 258 220 236 238 241 255 276 285 291 282 241 183 153 157 168 182 179 198 198 213 214 254 286 302 344 341 339 338 264 301 275 276 263 239
215 221 224 231 226 231 243 252 261 273 283 286 284 264 279 286 271 264 263 264 254 151 145 155 164 179 182 197 208 199 219 230 285 310 334 328 320 296 288 324 336 299 277 214
218 222 222 233 223 229 234 243 254 261 273 270 277 270 264 263 269 265 255 219 228 144 162 160 165 180 184 201 191 201 186 222 284 306 323 344 348 330 306 334 349 18 197 183
226 225 222 225 229 220 232 232 239 254 274 270 281 289 279 294 272 257 237 203 169 155 168 160 167 177 186 196 190 173 180 224 199 350 4 355 356 348 321 21 14 45 133 178
225 219 230 220 221 231 233 239 242 236 247 259 268 269 276 289 281 233 169 222 177 158 166 165 169 175 185 191 173 174 183 194 176 41 16 10 11 0 357 19 39 87 140 130
229 228 227 233 228 220 233 237 248 257 260 249 250 259 270 266 320 101 297 228 138 156 158 158 166 169 180 175 168 173 197 185 219 247 17 5 349 356 16 64 71 66 67 118
217 227 231 232 229 215 224 213 224 225 237 252 250 246 245 280 297 330 313 128 147 146 150 158 166 164 176 175 163 175 188 187 226 122 29 23 43 45 62 78 64 65 57 96
219 219 222 216 229 218 198 207 219 226 223 245 236 242 261 98 91 74 79 74 123 146 149 161 168 166 170 170 165 206 177 161 215 112 78 51 60 63 84 86 68 62 66 91
208 227 208 228 208 218 194 212 215 250 251 284 281 221 217 171 166 198 196 141 131 147 151 162 163 170 169 164 169 199 187 172 191 130 130 74 85 86 96 97 84 69 72 103
235 215 225 208 210 204 219 192 208 232 244 266 279 277 225 138 199 150 127 143 134 148 157 164 164 170 167 161 168 188 178 170 173 161 180 118 109 103 97 104 93 73 91 118
226 243 210 207 204 192 205 222 199 225 225 226 243 257 276 149 128 121 155 138 146 156 166 165 166 164 173 163 167 186 192 171 160 172 119 158 116 107 94 99 108 80 100 115
214 225 238 209 199 197 206 216 192 214 219 253 253 242 98 110 137 135 114 138 154 161 170 168 166 166 178 170 168 177 200 166 177 173 143 153 121 107 101 98 109 86 102 110
202 224 227 224 205 184 212 218 215 210 223 213 234 243 160 159 157 158 144 141 164 166 170 168 168 170 181 173 174 172 192 178 178 173 136 160 127 113 107 117 113 97 96 105
187 220 222 219 197 178 195 216 215 212 216 225 237 248 145 152 172 204 156 150 167 172 169 171 171 172 181 176 178 174 185 174 175 164 147 164 138 136 130 128 134 115 107 105
186 211 218 229 229 193 197 207 221 216 212 222 224 244 202 181 187 218 151 157 168 179 171 174 176 173 177 174 181 175 181 169 171 167 147 164 152 153 148 133 116 128 123 117
188 208 222 211 231 212 205 205 216 224 213 214 230 230 234 202 191 193 153 160 177 178 176 179 178 177 177 174 183 179 178 162 172 171 151 164 172 164 146 123 124 122 127 128
186 192 204 223 217 236 208 202 206 219 224 209 216 223 238 230 211 176 142 160 193 181 181 181 178 179 177 174 187 172 178 161 172 174 160 170 181 164 151 147 144 123 125 117
276 191 196 216 219 227 230 194 212 218 223 221 222 208 214 235 196 203 181 173 174 178 182 178 173 173 171 173 181 172 178 165 174 188 168 174 180 168 174 162 150 138 126 118
262 180 196 212 219 227 215 217 198 208 213 212 216 219 218 208 227 231 209 211 166 172 175 174 168 164 166 175 178 175 183 174 181 191 172 176 185 170 180 173 154 154 154 148
252 177 213 190 221 224 213 208 215 205 224 202 205 204 208 228 222 228 197 191 159 161 176 167 162 161 167 176 176 179 189 178 188 190 181 176 185 175 178 177 159 163 172 172
229 187 211 230 233 207 223 199 186 209 235 201 210 191 205 214 215 236 167 177 161 160 166 165 161 168 171 174 177 184 190 185 190 193 184 174 182 178 179 173 166 171 181 183
243 181 209 221 228 221 221 220 212 151 251 247 194 185 194 213 211 231 160 231 174 159 165 165 162 169 169 174 179 188 195 188 192 195 183 174 175 173 178 173 170 178 193 191
281 55 255 225 213 233 301 242 117 151 230 231 186 185 198 192 205 214 172 161 133 157 164 168 164 165 170 176 183 189 194 190 195 199 181 170 168 180 177 172 174 179 196 199
282 8 308 357 271 229 238 264 188 203 212 165 168 178 187 190 199 206 215 163 173 193 183 169 171 163 171 183 186 187 191 190 196 198 176 165 162 177 166 173 181 187 190 207
301 337 328 306 316 308 258 315 180 170 182 193 193 205 194 195 191 192 178 146 171 203 191 167 184 167 171 183 185 185 190 191 198 192 172 165 167 175 172 180 189 198 197 203
269 314 304 340 334 328 292 7 330 214 129 231 174 195 172 192 171 182 159 159 184 187 171 164 169 177 174 178 186 188 190 192 197 185 176 173 174 177 184 188 196 201 212 200